Location: Oshawa
(43.9000°N, 78.8670°W)
Time: 18:01:29
(UTC-04:00)

Thor Agena Rocket - Visible Passes

Search period start: 18 October 2017 00:00
Search period end: 28 October 2017 00:00
Orbit: 760 x 808 km, 99.1° (Epoch: 17 October)

Date Brightness Start Highest point End Pass type
(mag) Time Alt. Az. Time Alt. Az. Time Alt. Az.
18 Oct 6.3 05:35:57 10° E 05:39:25 18° ENE 05:42:52 10° NNE visible
18 Oct 4.1 19:23:45 10° NNE 19:28:22 34° E 19:32:56 10° SSE visible
18 Oct 5.2 21:03:07 10° N 21:07:36 32° WNW 21:12:01 10° SW visible
19 Oct 4.1 06:41:43 10° SSE 06:46:56 64° ENE 06:52:07 10° N visible
19 Oct 4.9 18:53:26 10° NE 18:56:49 18° E 19:00:10 10° SE visible
19 Oct 4.0 20:31:29 10° N 20:36:31 59° WNW 20:41:28 10° SSW visible
20 Oct 5.3 06:11:08 10° SE 06:15:50 34° ENE 06:20:31 10° N visible
20 Oct 3.4 20:00:10 10° NNE 20:05:17 73° ESE 20:10:19 10° S visible
20 Oct 6.2 21:40:54 10° NNW 21:43:58 16° WNW 21:47:02 10° W visible
21 Oct 6.2 05:41:13 10° ESE 05:44:53 20° ENE 05:48:32 10° NNE visible
21 Oct 4.0 19:29:12 10° NNE 19:33:54 37° E 19:38:33 10° SSE visible
21 Oct 5.3 21:08:44 10° N 21:13:04 29° WNW 21:17:21 10° WSW visible
22 Oct 6.7 05:12:50 10° ENE 05:14:04 11° NE 05:15:19 10° NE visible
22 Oct 4.0 06:47:13 10° SSE 06:52:26 70° ENE 06:57:38 10° N visible
22 Oct 4.7 18:58:45 10° NE 19:02:23 19° E 19:05:58 10° SE visible
22 Oct 4.2 20:37:03 10° N 20:42:00 53° WNW 20:46:53 10° SW visible
23 Oct 5.1 06:16:31 10° SE 06:21:19 37° ENE 06:26:06 10° N visible
23 Oct 3.3 20:05:41 10° NNE 20:10:47 80° ESE 20:15:50 10° SSW visible
23 Oct 6.3 21:46:39 10° NNW 21:49:24 15° WNW 21:52:10 10° W visible
24 Oct 6.0 05:46:30 10° ESE 05:50:20 21° ENE 05:54:10 10° NNE visible
24 Oct 3.8 19:34:38 10° NNE 19:39:25 41° E 19:44:10 10° S visible
24 Oct 5.5 21:14:20 10° N 21:18:31 26° WNW 21:22:40 10° WSW visible
25 Oct 6.5 05:17:41 10° ENE 05:19:31 12° NE 05:21:20 10° NE visible
25 Oct 3.8 06:52:43 10° SSE 06:57:57 77° ENE 07:03:09 10° NNW visible
25 Oct 4.6 19:04:05 10° NE 19:07:55 21° E 19:11:44 10° SE visible
25 Oct 4.3 20:42:36 10° N 20:47:28 48° WNW 20:52:18 10° SW visible
26 Oct 4.9 06:21:56 10° SE 06:26:49 41° ENE 06:31:39 10° N visible
26 Oct 3.4 20:11:11 10° NNE 20:16:17 88° ESE 20:21:20 10° SSW visible
26 Oct 6.3 21:52:25 10° NNW 21:54:51 14° WNW 21:57:15 10° W visible
27 Oct 5.9 05:51:48 10° ESE 05:55:48 23° ENE 05:59:48 10° NNE visible
27 Oct 3.7 19:40:05 10° NNE 19:44:57 45° E 19:49:46 10° S visible
27 Oct 5.6 21:19:57 10° N 21:23:58 24° WNW 21:27:58 10° WSW visible
